Location: Caualo
(45.5667°N, 10.8667°E)
Time: 00:19:48
(UTC+00:00)

In-Cosmos 22 Rocket - Pass Details

Date: 02 October 2020
Orbit: 790 x 889 km, 81.2° (Epoch: 27 October)

Event Time Altitude Azimuth Distance (km) Brightness Sun altitude
Rises 21:04:46 0° 346° (NNW) 3,331 8.0 -40.8°
Reaches altitude 10° 21:07:11 10° 344° (NNW) 2,385 7.1 -41.1°
Enters shadow 21:08:18 17° 343° (NNW) 1,959 6.6 -41.2°
